This demonstration page uses our WeatherBlox Daily Observations layout. Learn more.

Left ArrowRight Arrow

Hourly Observations for June 22, 2018

Temp ( °F °C ) Dew Point ( °F °C ) Humidity (%) Winds ( mph kmh ) Pressure ( in mb ) Visibility ( mi km ) Precip ( " mm )
12:54 am 00:54 Cloudy 64 17.8 62 16.7 93 93 NW 8 13 29.88 1012 7 11 0.00 0.00
1:37 am 01:37 Cloudy with Light Rain 63 17.2 61 16.1 93 93 NNW 10 17 29.88 1012 3 5 0.00 0.03
1:54 am 01:54 Cloudy with Mist and Fog 63 17.2 61 16.1 93 93 N 10 17 29.88 1012 4 6 0.00 0.03
2:28 am 02:28 Cloudy 62 16.7 61 16.1 96 96 N 10 17 29.85 1011 9 14 0.00 0.00
2:38 am 02:38 Cloudy 62 16.7 61 16.1 96 96 N 9 15 29.85 1011 10 16 0.00 0.00
2:54 am 02:54 Cloudy 62 16.7 60 15.6 93 93 N 10 17 29.87 1012 10 16 0.00 0.00
3:17 am 03:17 Cloudy 62 16.7 60 15.6 93 93 N 9 15 29.85 1011 10 16 0.00 0.00
3:54 am 03:54 Cloudy 62 16.7 59 15 90 90 N 8 13 29.87 1011 10 16 0.00 0.00
4:54 am 04:54 Cloudy 62 16.7 59 15 90 90 N 8 13 29.87 1011 10 16 0.00 0.00
5:05 am 05:05 Cloudy 62 16.7 60 15.6 93 93 N 7 11 29.85 1011 10 16 0.00 0.00
5:18 am 05:18 Cloudy 62 16.7 59 15 90 90 N 9 15 29.85 1011 10 16 0.00 0.00
5:54 am 05:54 Cloudy 62 16.7 59 15 90 90 N 6 9 29.87 1012 10 16 0.00 0.00
6:54 am 06:54 Cloudy 63 17.2 59 15 87 87 N 9 15 29.88 1012 10 16 0.00 0.00
7:54 am 07:54 Cloudy 63 17.2 59 15 87 87 N 8 13 29.89 1012 10 16 0.00 0.00
8:54 am 08:54 Cloudy 64 17.8 58 14.4 81 81 N 12 19 29.89 1012 10 16 0.00 0.00
9:54 am 09:54 Cloudy 63 17.2 57 13.9 81 81 NNE 10 17 29.91 1013 10 16 0.00 0.00
10:54 am 10:54 Cloudy 64 17.8 58 14.4 81 81 NE 9 15 29.91 1013 10 16 0.00 0.00
11:54 am 11:54 Cloudy 64 17.8 58 14.4 81 81 NNE 12 19 29.91 1013 10 16 0.00 0.00
12:14 pm 12:14 Cloudy 66 18.9 58 14.4 75 75 NNE 9 15 29.88 1012 10 16 0.00 0.00
12:54 pm 12:54 Cloudy 67 19.4 59 15 76 76 NNE 7 11 29.90 1013 10 16 0.00 0.00
1:36 pm 13:36 Cloudy 68 20 59 15 73 73 ENE 6 9 29.88 1012 10 16 0.00 0.00
1:49 pm 13:49 Cloudy 68 20 59 15 73 73 NE 10 17 29.88 1012 10 16 0.00 0.00
1:54 pm 13:54 Cloudy 68 20 59 15 73 73 ENE 9 15 29.88 1012 10 16 0.00 0.00
2:34 pm 14:34 Cloudy 69 20.6 59 15 70 70 ENE 6 9 29.85 1011 10 16 0.00 0.00
2:54 pm 14:54 Cloudy 69 20.6 59 15 70 70 ENE 8 13 29.87 1012 10 16 0.00 0.00
3:54 pm 15:54 Cloudy 70 21.1 60 15.6 71 71 NNE 3 6 29.86 1011 10 16 0.00 0.00
4:54 pm 16:54 Cloudy 70 21.1 60 15.6 71 71 N 5 7 29.84 1011 10 16 0.00 0.00
5:54 pm 17:54 Cloudy 69 20.6 61 16.1 76 76 N 3 6 29.82 1010 10 16 0.00 0.00
6:18 pm 18:18 Cloudy 70 21.1 61 16.1 73 73 Calm 29.80 1009 10 16 0.00 0.00
6:54 pm 18:54 Cloudy 70 21.1 61 16.1 73 73 Calm 29.82 1010 10 16 0.00 0.00
7:54 pm 19:54 Sunny 70 21.1 61 16.1 73 73 NE 3 6 29.79 1009 10 16 0.00 0.00
8:54 pm 20:54 Sunny 68 20 60 15.6 76 76 WNW 3 6 29.80 1009 10 16 0.00 0.00
9:54 pm 21:54 Clear 65 18.3 61 16.1 87 87 WSW 6 9 29.81 1010 10 16 0.00 0.00
10:54 pm 22:54 Clear 63 17.2 60 15.6 90 90 Calm 29.82 1010 8 13 0.00 0.00
11:54 pm 23:54 Clear 62 16.7 60 15.6 93 93 Calm 29.81 1010 7 11 0.00 0.00

Powered by AerisWeather